EHI
0 0 0 0 0 0 0 0 0 0 0 0 0 0 0 0 0 0 0 0 0 0 0 0 0 0 0 0 0 0 0 0 0 0 0 0 0 0 0 0 0 0 0 0
0 0 0 0 0 0 0 0 0 0 0 0 0 0 0 0 0 0 0 0 0 0 0 0 0 0 0 0 0 0 0 0 0 0 0 0 0 0 0 0 0 0 0 0
0 0 0 0 0 0 0 0 0 0 0 0 0 0 0 0 0 0 0 0 0 0 0 0 0 0 0 0 0 0 0 0 0 0 0 0 0 0 0 0 0 0 0 0
0 0 0 0 0 0 0 0 0 0 0 0 0 0 0 0 0 0 0 0 0 0 0 0 0 0 0 0 0 0 0 0 0 0 0 0 0 0 0 0 0 0 0 0
0 0 0 0 0 0 0 0 0 0 0 0 0 0 0 0 0 0 0 0 0 0 0 0 0 0 0 0 0 0 0 0 0 0 0 0 0 0 0 0 0 0 0 0
0 0 0 0 0 0 0 0 0 0 0 0 0 0 0 0 0 0 0 0 0 0 0 0 0 0 0 0 0 0 0 0 0 0 0 0 0 0 0 0 0 0 0 0
0 0 0 0 0 0 0 0 0 0 0 0 0 0 0 0 0 0 0 0 0 0 0 0 0 0 0 0 0 0 0 0 0 0 0 0 0 0 0 0 0 0 0 0
0 0 0 0 0 0 0 0 0 0 0 0 0 0 0 0 0 0 0 0 0 0 0 0 0 0 0 0 0 0 0 0 0 0 0 0 0 0 0 0 0 0 0 0
0 0 0 0 0 0 0 0 0 0 0 0 0 0 0 0 0 0 0 0 0 0 0 0 0 0 0 0 0 0 0 0 0 0 0 0 0 0 0 0 0 0 0 0
0 0 0 0 0 0 0 0 0 0 0 0 0 0 0 0 0 0 0 0 0 0 0 0 0 0 0 0 0 0 0 0 0 0 0 0 0 0 0 0 0 0 0 0
0 0 0 0 0 0 0 0 0 0 0 0 0 0 0 0 0 0 0 0 0 0 0 0 0 0 0 0 0 0 0 0 0 0 0 0 0 0 0 0 0 0 0 0
0 0 0 0 0 0 0 0 0 0 0 0 0 0 0 0 0 0 0 0 0 0 0 0 0 0 0 0 0 0 0 0 0 0 0 0 0 0 0 0 0 0 0 0
0 0 0 0 0 0 0 0 0 0 0 0 0 0 0 0 0 0 0 0 0 0 0 0 0 0 0 0 0 0 0 0 0 0 0 0 0 0 0 0 0 0 0 0
0 0 0 0 0 0 0 0 0 0 0 0 0 0 0 0 0 0 0 0 0 0 0 0 0 0 0 0 0 0 0 0 0 0 0 0 0 0 0 0 0 0 0 0
0 0 0 0 0 0 0 0 0 0 0 0 0 0 0 0 0 0 0 0 0 0 0 0 0 0 0 0 0 0 0 0 0 0 0 0 0 0 0 0 0 0 0 0
0 0 0 0 0 0 0 0 0 0 0 0 0 0 0 0 0 0 0 0 0 0 0 0 0 0 0 0 0 0 0 0 0 0 0 0 0 0 0 0 0 0 0 0
0 0 0 0 0 0 0 0 0 0 0 0 0 0 0 0 0 0 0 0 0 0 0 0 0 0 0 0 0 0 0 0 0 0 0 0 0 0 0 0 0 0 0 0
0 0 0 0 0 0 0 0 0 0 0 0 0 0 0 0 0 0 0 0 0 0 0 0 0 0 0 0 0 0 0 0 0 0 0 0 0 0 0 0 0 0 0 0
0 0 0 0 0 0 0 0 0 0 0 0 0 0 0 0 0 0 0 0 0 0 0 0 0 0 0 0 0 0 0 0 0 0 0 0 0 0 0 0 0 0 0 0
0 0 0 0 0 0 0 0 0 0 0 0 0 0 0 0 0 0 0 0 0 0 0 0 0 0 0 0 0 0 0 0 0 0 0 0 0 0 0 0 0 0 0 0
0 0 0 0 0 0 0 0 0 0 0 0 0 0 0 0 0 0 0 0 0 0 0 0 0 0 0 0 0 0 0 0 0 0 0 0 0 0 0 0 0 0 0 0
0 0 0 0 0 0 0 0 0 0 0 0 0 0 0 0 0 0 0 0 0 0 0 0 0 0 0 0 0 0 0 0 0 0 0 0 0 0 0 0 0 0 0 0
0 0 0 0 0 0 0 0 0 0 0 0 0 0 0 0 0 0 0 0 0 0 0 0 0 0 0 0 0 0 0 0 0 0 0 0 0 0 0 0 0 0 0 0
0 0 0 0 0 0 0 0 0 0 0 0 0 0 0 0 0 0 0 0 0 0 0 0 0 0 0 0 0 0 0 0 0 0 0 0 0 0 0 0 0 0 0 0
0 0 0 0 0 0 0 0 0 0 0 0 0 0 0 0 0 0 0 0 0 0 0 0 0 0 0 0 0 0 0 0 0 0 0 0 0 0 0 0 0 0 0 0
0 0 0 0 0 0 0 0 0 0 0 0 0 0 0 0 0 0 0 0 0 0 0 0 0 0 0 0 0 0 0 0 0 0 0 0 0 0 0 0 0 0 0 0
0 0 0 0 0 0 0 0 0 0 0 0 0 0 0 0 0 0 0 0 0 0 0 0 0 0 0 0 0 0 0 0 0 0 0 0 0 0 0 0 0 0 0 0
Wind_Speed
18 21 20 23 24 20 21 22 21 24 25 24 18 16 16 16 16 16 13 6 5 8 9 11 12 12 13 14 13 13 15 16 16 15 15 14 13 12 10 8 7 6 4 3
17 21 21 23 23 20 19 21 25 27 29 21 14 10 12 14 14 14 10 5 8 10 11 12 12 13 14 14 13 13 16 16 16 15 15 14 13 11 10 8 6 5 3 1
12 14 15 10 9 10 11 14 16 21 23 16 12 13 13 13 13 10 5 7 10 11 11 12 12 14 14 14 14 15 16 16 15 15 14 13 12 10 9 7 5 4 2 1
8 11 7 5 6 9 11 13 16 19 20 14 11 9 9 9 8 4 5 10 11 12 12 12 13 14 15 15 16 16 16 15 14 14 13 12 10 9 7 5 4 2 1 2
5 7 9 7 5 5 5 7 7 14 17 15 9 9 5 5 4 2 8 11 12 13 14 14 14 15 17 16 16 15 15 14 13 13 12 11 9 8 6 4 3 1 1 3
5 6 5 6 7 5 6 5 7 10 10 8 5 4 4 7 6 9 12 12 13 14 14 14 14 15 17 16 15 14 14 13 12 11 11 10 8 7 4 3 1 0 2 3
7 6 7 6 7 6 4 9 11 10 8 3 2 2 6 7 10 12 13 14 14 14 13 13 14 15 16 15 14 13 13 12 11 10 10 9 7 5 4 2 0 2 3 4
5 5 5 1 4 3 6 7 8 7 4 3 7 9 10 11 11 12 13 14 14 14 14 12 13 15 16 15 14 13 13 12 11 10 8 6 6 5 3 1 2 3 4 5
5 6 4 3 6 6 5 7 6 3 2 8 9 9 11 12 12 12 13 13 13 15 15 13 12 13 17 14 13 13 13 12 10 9 7 5 4 3 2 1 2 4 4 5
7 9 7 7 5 3 3 4 3 2 6 7 10 12 12 11 11 12 13 13 13 15 16 14 13 13 15 13 12 12 12 10 8 7 6 5 3 2 2 2 3 4 5 6
7 8 7 1 3 3 4 5 7 8 8 10 14 13 13 12 12 12 12 12 12 13 15 14 13 13 12 11 12 12 10 8 7 5 5 4 3 2 2 2 4 6 6 6
4 3 3 3 3 4 5 7 8 11 12 11 11 14 14 12 12 12 12 12 13 15 15 14 13 12 10 9 10 10 8 7 5 4 3 2 2 1 0 3 5 7 8 9
4 1 1 2 4 5 7 8 9 10 12 13 12 12 14 13 12 12 13 13 14 15 14 13 12 11 8 8 8 8 8 6 4 3 3 2 2 3 3 3 4 6 7 10
5 4 3 4 5 7 10 12 12 13 12 12 13 13 13 14 13 13 13 13 14 14 13 12 12 10 8 7 8 8 7 6 4 3 2 1 2 3 4 5 7 6 6 9
6 5 2 7 10 11 12 13 14 13 13 13 12 12 14 14 14 13 12 12 13 13 12 11 11 9 7 7 8 7 5 4 3 2 1 1 2 3 4 5 6 7 7 7
5 5 8 10 12 12 13 13 13 13 13 14 13 12 13 14 14 13 12 11 12 12 11 10 10 8 7 7 7 5 4 5 2 1 1 2 3 4 4 5 6 7 7 7
8 7 8 9 12 13 12 11 12 13 13 14 14 14 14 14 14 12 10 9 11 10 9 10 9 7 6 6 5 4 3 3 2 1 2 3 3 4 5 6 6 7 7 8
6 7 10 12 14 14 13 12 13 13 13 13 15 14 14 14 13 12 11 11 11 10 8 8 8 7 6 5 4 3 2 2 1 2 2 3 4 4 5 6 7 8 7 8
5 6 9 12 14 14 14 14 14 13 13 14 14 14 12 12 12 12 12 11 11 10 7 7 10 7 6 5 4 2 2 1 1 2 3 5 5 4 5 6 6 7 8 8
5 7 10 13 13 14 15 14 14 13 13 14 15 14 13 12 12 12 11 8 6 6 8 8 7 6 5 4 3 2 1 1 2 3 3 4 5 5 5 6 7 7 8 8
8 10 12 13 13 13 14 15 15 15 13 13 14 15 14 12 11 10 10 8 6 7 8 9 5 4 4 3 3 1 1 2 3 3 4 4 5 5 6 6 6 7 7 8
8 10 13 13 14 13 11 12 14 15 15 13 14 14 14 12 10 9 7 6 8 9 6 4 4 5 5 3 1 1 2 3 3 4 4 4 5 6 6 7 7 7 7 8
7 9 11 13 14 14 13 12 13 13 14 14 14 14 12 10 8 8 7 6 6 9 6 4 6 7 5 2 1 2 3 3 4 4 4 4 5 6 6 7 7 7 7 8
9 10 11 12 14 15 15 13 11 11 12 12 11 12 11 9 6 5 7 11 11 9 5 6 7 6 4 1 2 2 3 4 4 4 5 5 5 6 6 6 7 7 7 9
10 11 12 13 13 11 14 14 14 14 13 10 11 9 7 5 6 8 8 9 11 9 5 6 6 4 2 2 3 3 4 4 5 6 5 5 6 6 6 6 7 7 8 8
10 9 9 8 8 10 11 11 10 10 10 10 8 6 7 7 9 8 7 8 8 7 5 3 2 2 2 3 4 4 4 5 5 5 5 6 7 7 7 7 9 8 8 8
10 9 8 9 9 8 9 9 10 10 10 11 9 7 8 8 7 7 7 6 5 4 3 1 1 2 3 3 4 4 5 5 5 6 6 6 6 6 7 8 7 7 8 8
Wind_Direction
257 272 274 269 269 258 240 240 251 262 268 276 285 289 290 293 293 293 294 276 199 169 149 141 137 132 128 127 131 132 127 122 121 120 119 120 120 121 122 126 130 133 133 131
274 274 275 274 273 266 252 245 248 262 271 278 290 289 289 290 289 287 283 218 172 155 143 141 137 132 127 125 128 125 119 117 118 119 118 119 121 123 124 128 131 131 127 102
286 301 295 276 277 265 243 235 240 252 260 269 271 277 278 280 281 280 256 171 156 148 142 137 134 132 127 125 123 117 115 117 119 119 119 121 123 124 127 130 134 136 118 349
287 304 297 325 306 286 273 266 249 251 263 270 269 274 277 285 286 269 169 149 141 134 127 124 124 122 120 118 116 116 116 117 119 121 121 124 124 123 124 129 133 123 43 344
275 292 285 306 324 311 294 291 293 270 266 267 271 284 292 347 313 187 136 129 124 123 122 121 122 122 117 114 115 116 118 119 122 124 125 124 122 122 125 132 126 97 340 334
271 291 300 314 324 314 268 305 3 327 294 273 249 278 32 20 50 102 109 112 115 117 117 117 119 120 115 115 115 115 117 119 120 121 121 120 119 119 120 120 105 353 323 328
251 266 275 287 310 300 324 345 339 329 317 255 207 52 72 67 75 91 102 110 115 114 112 114 119 116 111 110 110 113 113 111 109 108 109 111 114 116 122 118 71 324 319 320
221 243 273 299 311 317 321 319 311 316 333 110 100 90 87 85 89 95 101 107 111 109 107 110 115 114 108 107 111 112 109 106 105 105 105 114 120 120 112 65 330 330 326 327
234 259 312 284 268 297 313 293 298 309 107 124 112 101 98 95 96 98 102 106 109 111 108 104 107 111 109 113 115 113 109 107 108 109 111 116 113 111 96 21 347 335 329 325
264 268 277 287 295 336 331 296 312 122 130 127 118 117 109 104 103 103 105 109 113 111 106 101 100 102 109 115 116 114 114 116 120 120 116 110 100 78 40 6 343 330 325 322
261 282 301 347 19 31 64 84 96 100 107 117 119 117 114 111 109 109 109 108 107 106 104 104 105 103 107 115 120 119 119 120 118 112 112 105 89 56 6 3 337 326 322 317
263 314 303 351 58 94 106 105 112 114 109 110 117 120 117 111 111 111 109 108 106 104 106 108 107 105 108 118 124 123 121 119 114 112 105 86 57 44 167 314 319 314 313 312
269 121 28 95 110 113 116 117 117 116 118 118 118 119 117 113 111 109 109 109 109 109 111 112 110 108 111 117 118 116 117 115 109 101 83 53 6 337 324 295 282 297 307 315
201 170 187 173 146 130 124 117 111 109 112 115 119 118 115 112 111 109 109 111 112 112 113 115 113 109 112 114 111 108 105 97 94 89 69 18 339 326 321 320 318 317 316 316
192 199 155 128 127 130 131 129 123 120 119 117 117 118 119 118 115 113 114 115 114 113 116 117 114 112 115 112 107 104 100 100 98 90 47 341 328 318 313 308 306 310 313 318
131 128 136 144 147 148 149 146 137 134 130 125 120 116 115 115 115 115 120 126 125 122 123 120 116 116 114 109 108 104 98 96 84 53 8 341 327 315 309 308 307 309 314 323
152 162 163 164 165 163 160 153 143 138 134 129 126 124 122 119 117 116 116 116 115 116 118 118 117 115 111 113 113 108 104 96 69 21 359 336 319 312 310 308 309 311 313 319
202 190 181 174 167 160 151 142 139 138 134 132 131 130 132 132 129 125 122 118 112 105 105 112 117 119 119 119 110 98 85 67 30 358 338 325 317 315 308 306 309 311 313 318
176 163 163 161 159 152 145 141 139 134 133 137 135 133 130 128 127 127 128 126 125 122 124 129 130 128 126 117 104 88 74 51 3 340 328 318 313 308 308 309 311 314 316 319
136 139 142 141 141 142 141 138 135 134 137 137 132 128 126 126 127 127 125 117 116 126 135 136 134 128 125 117 101 78 57 11 340 332 322 315 313 313 313 313 315 318 319 318
135 135 135 135 134 135 138 140 139 137 138 140 136 132 128 127 127 127 126 117 118 131 136 136 132 129 125 111 94 64 22 347 331 324 316 312 312 313 314 316 317 317 316 314
138 139 138 136 133 132 134 135 135 134 133 129 126 127 127 128 125 114 106 120 137 141 135 133 130 126 115 101 64 22 349 329 319 313 308 308 310 311 313 316 313 311 308 307
138 139 139 138 134 129 126 127 132 132 132 133 135 136 133 131 130 127 122 131 139 141 133 127 125 115 99 73 29 346 322 313 309 306 305 304 305 306 308 307 304 303 302 302
135 135 132 130 129 128 126 125 120 118 119 119 123 128 129 123 108 101 122 139 139 130 118 116 112 100 81 38 342 315 306 304 301 298 298 300 302 301 297 295 295 295 295 296
133 132 136 141 139 132 127 125 119 117 113 111 113 112 108 110 120 125 125 128 126 114 97 93 88 77 39 337 314 305 301 297 298 302 303 302 297 293 290 289 289 290 290 290
138 140 142 138 131 134 137 134 129 128 126 121 114 106 105 107 113 114 110 110 109 104 95 79 52 23 335 314 304 302 299 299 302 299 293 291 289 287 285 285 287 285 285 285
132 131 126 122 129 137 135 133 132 133 133 131 124 121 120 117 115 112 110 106 103 100 95 73 11 327 311 305 301 298 295 294 294 292 289 285 282 279 280 281 281 283 283 283